カタログに戻る

COSMOS 2499 DEB

LostPO
NORAD 49930·DEBRIS·🇷🇺 Russia

打ち上げ May 23, 2014 から Plesetsk Cosmodrome

Loading…

次のパス (今後24時間)

TLE

古いSource: Space-Track

元期: Dec 17, 2021, 12:45 UTC

1 49930U 14028M   21351.53177900 -.00004328  00000-0 -15243-1 0  9999
2 49930  82.5456 281.3113 0241411 264.7077  92.6443 12.87072219  5958

AllMySatでCOSMOS 2499 DEBをリアルタイム追跡

Download on the App Store